Location: Greenhawk Observatory
(37.3417°N, 122.0298°W)
Time: 15:38:19
(UTC-07:00)

Envisat - Visible Passes

Search period start: 18 July 2018 00:00
Search period end: 28 July 2018 00:00
Orbit: 764 x 766 km, 98.2° (Epoch: 18 July)

Date Brightness Start Highest point End Pass type
(mag) Time Alt. Az. Time Alt. Az. Time Alt. Az.
18 Jul 4.6 21:01:51 10° SSW 21:06:29 35° W 21:11:08 10° NNW visible
20 Jul 5.5 21:28:34 10° SW 21:32:12 20° W 21:35:53 10° NW visible
21 Jul 4.2 20:50:25 10° S 20:55:16 45° W 21:00:09 10° NNW visible
22 Jul 6.0 21:57:17 10° W 21:58:03 10° W 21:58:48 10° W visible
23 Jul 5.2 21:16:49 10° SSW 21:20:58 25° W 21:25:08 10° NW visible
25 Jul 5.7 21:44:13 10° WSW 21:46:45 14° W 21:49:19 10° WNW visible
26 Jul 4.8 21:05:14 10° SSW 21:09:44 32° W 21:14:16 10° NNW visible
